Home   Weather   Apeldoorn   Past weeks

Flag for Netherlands Past Weather in Apeldoorn, Netherlands — Yesterday and Last 2 Weeks

Now
48 °F

Drizzle. Cloudy.


Feels Like: 42 °F
Forecast: 44 / 51 °F
Wind: 15 mph from Southwest

Location: Deelen

Current Time: Feb 20, 2017 at 2:49:56 pm

Latest Report: Feb 20, 2017 at 1:55 pm


Visibility: 2 mi

Pressure: 29.95 "Hg

Humidity: 100%

Dew Point: 48 °F

Location of ApeldoornLocation

Past Weather in Apeldoorn — Graph

°F

Apeldoorn Temperature Yesterday

Maximum temperature yesterday: 46 °F (at 3:55 pm)
Minimum temperature yesterday: 36 °F (at 2:55 am)
Average temperature yesterday: 41 °F

High & Low Weather Summary for the Past Weeks

 TemperatureHumidityPressure
High57 °F (Feb 15, 2:25 pm)100% (Feb 5, 7:25 pm)30.51 "Hg (Feb 5, 7:25 pm)
Low25 °F (Feb 9, 10:25 pm)47% (Feb 15, 12:55 pm)29.59 "Hg (Feb 5, 1:25 pm)
Average37 °F87%30.23 "Hg
* Reported Feb 5 1:25 pm — Feb 20 1:25 pm, Apeldoorn, Weather by CustomWeather, © 2017

Note: Actual official high and low records may vary slightly from our data, if they occured in-between our weather recording intervals... More about our weather records

Advertising

Apeldoorn Weather History for the Previous 24 Hours

Scroll right to see more
 ConditionsComfort  
Time TempWeatherWind HumidityBarometerVisibility
1:25 pm
Mon, Feb 20
48 °FDrizzle. Mostly cloudy.16 mph100%29.95 "Hg2 mi
12:55 pm48 °FDrizzle. Cloudy.16 mph100%29.98 "Hg1 mi
12:25 pm48 °FDrizzle. Mostly cloudy.14 mph100%29.98 "Hg1 mi
11:55 am48 °FDrizzle. Mostly cloudy.16 mph94%29.98 "Hg1 mi
11:25 am48 °FDrizzle. More clouds than sun.16 mph94%29.98 "Hg1 mi
10:55 am48 °FDrizzle. Mostly cloudy.14 mph94%29.98 "Hg1 mi
10:25 am46 °FFog.15 mph100%30.01 "Hg1 mi
9:55 am46 °FFog.14 mph100%30.01 "Hg1 mi
9:25 am46 °FDrizzle. Low clouds.15 mph93%30.01 "Hg1 mi
8:55 am46 °FFog.13 mph93%30.01 "Hg1 mi
8:25 am45 °FDrizzle. Mostly cloudy.14 mph100%30.01 "Hg1 mi
7:55 am45 °FFog.12 mph100%30.04 "Hg1 mi
7:25 am45 °FDrizzle. Low clouds.13 mph100%30.01 "Hg1 mi
6:55 am45 °FDrizzle. Mostly cloudy.13 mph100%30.04 "Hg1 mi
6:25 am45 °FFog.13 mph100%30.04 "Hg1 mi
5:55 am45 °FDrizzle. Mostly cloudy.14 mph100%30.04 "Hg1 mi
5:25 am45 °FDrizzle. Mostly cloudy.13 mph100%30.04 "Hg1 mi
4:55 am45 °FDrizzle. Mostly cloudy.13 mph93%30.07 "Hg1 mi
4:25 am45 °FFog.12 mph93%30.07 "Hg2 mi
3:55 am45 °FFog.10 mph93%30.07 "Hg3 mi
3:25 am45 °FFog.10 mph93%30.07 "Hg3 mi
2:55 am45 °FFog.10 mph93%30.09 "Hg3 mi
2:25 am43 °FFog.10 mph100%30.09 "Hg3 mi
1:55 am43 °FFog.10 mph93%30.09 "Hg3 mi
1:25 am43 °FFog.8 mph93%30.12 "Hg2 mi
12:55 am43 °FFog.6 mph93%30.12 "Hg2 mi
12:25 am43 °FFog.3 mph93%30.12 "Hg1 mi
11:25 pm
Sun, Feb 19
43 °FFog.6 mph93%30.12 "Hg2 mi
10:55 pm43 °FFog.6 mph93%30.12 "Hg1 mi
10:25 pm43 °FFog.6 mph93%30.12 "Hg1 mi
9:55 pm43 °FFog.6 mph100%30.12 "Hg1 mi
9:25 pm43 °FFog.7 mph93%30.12 "Hg1 mi
8:55 pm41 °FFog.7 mph100%30.12 "Hg2 mi
8:25 pm41 °FFog.7 mph100%30.12 "Hg3 mi
7:55 pm43 °FFog.6 mph93%30.12 "Hg2 mi
7:25 pm41 °FFog.5 mph100%30.12 "Hg2 mi
6:55 pm41 °FFog.7 mph93%30.12 "Hg2 mi
6:25 pm41 °FFog.6 mph100%30.09 "Hg1 mi
5:55 pm43 °FFog.7 mph93%30.09 "Hg3 mi
5:25 pm45 °FFog.7 mph93%30.09 "Hg2 mi
4:55 pm46 °FFog.9 mph93%30.09 "Hg2 mi
4:25 pm45 °FFog.9 mph93%30.09 "Hg2 mi
3:55 pm46 °FFog.9 mph93%30.09 "Hg2 mi
3:25 pm45 °FFog.8 mph93%30.09 "Hg2 mi
2:55 pm45 °FFog.9 mph93%30.09 "Hg1 mi
2:25 pm43 °FFog.9 mph100%30.09 "Hg1 mi
Weather by CustomWeather, © 2017

See weather overviewHow to use our weather pages